N978PJ FEFF-GUFH

Flight info

Callsign N978PJ
Flight time 4h 0m
Altitude 47000
Route FEFF/16 ANIPA UT475 GADUV UQ200 AKLIS UT458 ULKUK UQ181 TENTU UR981 BORNI UL683 TLE UA601 NANGA A601 BD ANIXA SEXEM VOLNA BINAX KN INEGA GUFH/27
Aircraft C750/M-SDE3FGIJ1KRWXY/LB1

Departure

Time 2026-05-06 07:53
Airport Bangui M'Poko International Airport (FEFF)

Arrival

Time 2026-05-06 11:53
Airport Faranah Airport (GUFH)
Time Latitude Longitude Altitude Speed Heading
2026-05-06 07:28 4.39799 18.52358 1198 ft 0 kts 78°
2026-05-06 07:45 4.39800 18.52332 1198 ft 4 kts 126°
2026-05-06 07:45 4.39823 18.52316 1198 ft 4 kts 158°
2026-05-06 07:45 4.39826 18.52315 1198 ft 0 kts 158°
2026-05-06 07:48 4.39807 18.52304 1198 ft 7 kts 241°
2026-05-06 07:49 4.39828 18.52250 1199 ft 10 kts 289°
2026-05-06 07:49 4.39817 18.52158 1199 ft 15 kts 256°
2026-05-06 07:49 4.39792 18.52059 1200 ft 15 kts 256°
2026-05-06 07:49 4.39711 18.51991 1200 ft 20 kts 167°
2026-05-06 07:50 4.39543 18.52035 1198 ft 28 kts 166°
2026-05-06 07:50 4.39351 18.52084 1195 ft 30 kts 165°
2026-05-06 07:50 4.39131 18.52141 1190 ft 35 kts 165°
2026-05-06 07:50 4.38900 18.52197 1187 ft 23 kts 180°
2026-05-06 07:51 4.38816 18.52199 1185 ft 9 kts 84°
2026-05-06 07:51 4.38866 18.52209 1186 ft 9 kts 346°
2026-05-06 07:51 4.38910 18.52198 1187 ft 4 kts 346°
2026-05-06 07:51 4.38915 18.52197 1187 ft 0 kts 346°
2026-05-06 07:53 4.39120 18.52143 1190 ft 79 kts 346°
2026-05-06 07:53 4.39958 18.51928 1202 ft 158 kts 345°
2026-05-06 07:53 4.41101 18.51636 1519 ft 177 kts 345°
2026-05-06 07:53 4.42353 18.51309 2084 ft 195 kts 343°
2026-05-06 07:54 4.43715 18.50852 2523 ft 220 kts 331°
2026-05-06 07:54 4.44977 18.49842 2861 ft 246 kts 307°
2026-05-06 07:54 4.45837 18.48317 3508 ft 254 kts 292°
2026-05-06 07:54 4.46522 18.46713 4537 ft 251 kts 291°
2026-05-06 07:55 4.47215 18.45088 5372 ft 255 kts 292°
2026-05-06 07:55 4.47907 18.43436 6146 ft 260 kts 292°
2026-05-06 07:55 4.48546 18.41710 6853 ft 267 kts 290°
2026-05-06 07:55 4.49169 18.39933 7621 ft 274 kts 291°
2026-05-06 07:56 4.49814 18.38116 8445 ft 279 kts 292°
2026-05-06 07:56 4.50472 18.36267 9290 ft 285 kts 292°
2026-05-06 07:56 4.51143 18.34379 10042 ft 290 kts 293°
2026-05-06 07:56 4.51825 18.32456 10735 ft 295 kts 292°
2026-05-06 07:57 4.52512 18.30513 11492 ft 297 kts 292°
2026-05-06 07:57 4.53210 18.28549 12233 ft 301 kts 292°
2026-05-06 07:57 4.53912 18.26569 12911 ft 303 kts 292°
2026-05-06 07:57 4.54624 18.24562 13535 ft 307 kts 292°
2026-05-06 07:58 4.55341 18.22541 14134 ft 309 kts 292°
2026-05-06 07:58 4.56062 18.20508 14731 ft 310 kts 291°
2026-05-06 07:58 4.56785 18.18469 15311 ft 312 kts 291°
2026-05-06 07:58 4.57514 18.16411 15924 ft 314 kts 291°
2026-05-06 07:59 4.58246 18.14349 16529 ft 315 kts 291°
2026-05-06 07:59 4.58982 18.12273 17121 ft 318 kts 291°
2026-05-06 07:59 4.59724 18.10181 17763 ft 319 kts 290°
2026-05-06 07:59 4.60468 18.08079 18378 ft 322 kts 290°
2026-05-06 08:00 4.61221 18.05957 18934 ft 324 kts 290°
2026-05-06 08:00 4.61978 18.03821 19490 ft 327 kts 290°
2026-05-06 08:00 4.62740 18.01668 20053 ft 329 kts 290°
2026-05-06 08:00 4.63510 17.99495 20622 ft 332 kts 290°
2026-05-06 08:01 4.64286 17.97306 21190 ft 335 kts 291°
2026-05-06 08:01 4.65069 17.95096 21758 ft 338 kts 290°
2026-05-06 08:01 4.65858 17.92867 22325 ft 341 kts 291°
2026-05-06 08:01 4.66655 17.90616 22900 ft 344 kts 291°
2026-05-06 08:02 4.67459 17.88347 23482 ft 347 kts 291°
2026-05-06 08:02 4.68269 17.86058 23982 ft 349 kts 291°
2026-05-06 08:02 4.69083 17.83760 24509 ft 350 kts 290°
2026-05-06 08:02 4.69899 17.81454 25034 ft 351 kts 290°
2026-05-06 08:03 4.70718 17.79142 25555 ft 353 kts 290°
2026-05-06 08:03 4.71539 17.76822 26075 ft 354 kts 290°
2026-05-06 08:03 4.72349 17.74531 26596 ft 355 kts 290°
2026-05-06 08:03 4.73191 17.72153 27131 ft 357 kts 290°
2026-05-06 08:04 4.74010 17.69837 27655 ft 358 kts 290°
2026-05-06 08:04 4.74844 17.67480 28169 ft 360 kts 290°
2026-05-06 08:04 4.75681 17.65112 28689 ft 361 kts 290°
2026-05-06 08:04 4.76523 17.62733 29195 ft 363 kts 290°
2026-05-06 08:05 4.77369 17.60340 29691 ft 365 kts 290°
2026-05-06 08:05 4.78219 17.57935 30165 ft 367 kts 290°
2026-05-06 08:05 4.79074 17.55518 30568 ft 369 kts 290°
2026-05-06 08:05 4.79948 17.53091 30941 ft 371 kts 292°
2026-05-06 08:06 4.80985 17.50677 31334 ft 373 kts 296°
2026-05-06 08:06 4.82153 17.48344 31741 ft 376 kts 298°
2026-05-06 08:06 4.83319 17.45992 32191 ft 379 kts 292°
2026-05-06 08:06 4.84112 17.43467 32663 ft 381 kts 286°
2026-05-06 08:07 4.84789 17.40887 33129 ft 384 kts 287°
2026-05-06 08:07 4.85606 17.38334 33563 ft 386 kts 292°
2026-05-06 08:07 4.86696 17.35868 34009 ft 388 kts 296°
2026-05-06 08:07 4.87873 17.33424 34390 ft 391 kts 296°
2026-05-06 08:08 4.88947 17.30906 34754 ft 395 kts 292°
2026-05-06 08:08 4.89936 17.28367 35139 ft 397 kts 292°
2026-05-06 08:08 4.91008 17.25768 35512 ft 400 kts 294°
2026-05-06 08:08 4.92126 17.23201 35872 ft 403 kts 294°
2026-05-06 08:09 4.93233 17.20608 36229 ft 406 kts 293°
2026-05-06 08:09 4.94315 17.17987 36528 ft 408 kts 293°
2026-05-06 08:09 4.95409 17.15353 36807 ft 411 kts 293°
2026-05-06 08:09 4.96514 17.12742 37102 ft 413 kts 294°
2026-05-06 08:10 4.97637 17.10087 37388 ft 415 kts 293°
2026-05-06 08:10 4.98757 17.07412 37687 ft 417 kts 293°
2026-05-06 08:10 4.99883 17.04720 37986 ft 419 kts 293°
2026-05-06 08:10 5.01018 17.02020 38294 ft 421 kts 293°
2026-05-06 08:11 5.02161 16.99304 38576 ft 424 kts 293°
2026-05-06 08:11 5.03305 16.96576 38846 ft 426 kts 293°
2026-05-06 08:11 5.04455 16.93831 39098 ft 427 kts 293°
2026-05-06 08:11 5.05603 16.91096 39577 ft 422 kts 293°
2026-05-06 08:12 5.06738 16.88394 40015 ft 419 kts 293°
2026-05-06 08:12 5.07868 16.85702 40344 ft 419 kts 293°
2026-05-06 08:12 5.09000 16.83003 40689 ft 419 kts 293°
2026-05-06 08:12 5.10127 16.80314 41020 ft 418 kts 293°
2026-05-06 08:13 5.11254 16.77627 41344 ft 418 kts 293°
2026-05-06 08:13 5.12382 16.74939 41667 ft 417 kts 293°
2026-05-06 08:13 5.13507 16.72254 41971 ft 417 kts 293°
2026-05-06 08:13 5.14630 16.69577 42261 ft 417 kts 293°
2026-05-06 08:14 5.15754 16.66893 42552 ft 417 kts 293°
2026-05-06 08:14 5.16875 16.64218 42830 ft 416 kts 293°
2026-05-06 08:14 5.17998 16.61539 43016 ft 418 kts 293°
2026-05-06 08:14 5.19136 16.58823 43002 ft 425 kts 293°
2026-05-06 08:15 5.21457 16.53283 43015 ft 437 kts 293°
2026-05-06 08:15 5.23841 16.47590 43015 ft 448 kts 293°
2026-05-06 08:16 5.26285 16.41754 43014 ft 459 kts 293°
2026-05-06 08:16 5.28785 16.35780 43012 ft 470 kts 293°
2026-05-06 08:17 5.31340 16.29671 43013 ft 479 kts 293°
2026-05-06 08:17 5.33944 16.23447 43002 ft 488 kts 293°
2026-05-06 08:18 5.36589 16.17122 43002 ft 495 kts 293°
2026-05-06 08:18 5.39262 16.10726 43008 ft 499 kts 293°
2026-05-06 08:19 5.41956 16.04277 42998 ft 503 kts 293°
2026-05-06 08:19 5.44667 15.97788 42988 ft 505 kts 293°
2026-05-06 08:20 5.47388 15.91271 42994 ft 507 kts 293°
2026-05-06 08:20 5.50113 15.84744 42989 ft 508 kts 293°
2026-05-06 08:21 5.52841 15.78207 42985 ft 508 kts 293°
2026-05-06 08:21 5.55111 15.72764 42983 ft 509 kts 293°
2026-05-06 08:22 5.57842 15.66214 42991 ft 509 kts 293°
2026-05-06 08:22 5.60570 15.59670 42987 ft 509 kts 293°
2026-05-06 08:23 5.63302 15.53113 42990 ft 508 kts 293°
2026-05-06 08:23 5.66028 15.46566 42985 ft 508 kts 293°
2026-05-06 08:24 5.68753 15.40022 42983 ft 508 kts 293°
2026-05-06 08:24 5.71474 15.33483 42984 ft 507 kts 293°
2026-05-06 08:25 5.74195 15.26945 42974 ft 508 kts 293°
2026-05-06 08:25 5.76912 15.20411 42977 ft 507 kts 293°
2026-05-06 08:26 5.79646 15.13834 42987 ft 507 kts 293°
2026-05-06 08:26 5.82359 15.07305 42987 ft 506 kts 293°
2026-05-06 08:27 5.85054 15.00820 42976 ft 506 kts 293°
2026-05-06 08:27 5.87760 14.94302 42980 ft 505 kts 293°
2026-05-06 08:28 5.90460 14.87798 42988 ft 504 kts 293°
2026-05-06 08:28 5.93155 14.81303 42994 ft 503 kts 293°
2026-05-06 08:29 5.95864 14.74770 42997 ft 503 kts 293°
2026-05-06 08:29 5.98532 14.68334 42996 ft 502 kts 293°
2026-05-06 08:30 6.01218 14.61852 43003 ft 502 kts 293°
2026-05-06 08:30 6.03901 14.55375 43006 ft 502 kts 293°
2026-05-06 08:31 6.06583 14.48899 43010 ft 502 kts 293°
2026-05-06 08:31 6.09267 14.42414 43011 ft 502 kts 293°
2026-05-06 08:32 6.11948 14.35933 43016 ft 503 kts 293°
2026-05-06 08:32 6.14632 14.29445 43010 ft 503 kts 293°
2026-05-06 08:33 6.17314 14.22956 43016 ft 503 kts 293°
2026-05-06 08:33 6.19998 14.16462 43017 ft 503 kts 293°
2026-05-06 08:34 6.24024 14.06714 43012 ft 504 kts 293°
2026-05-06 08:35 6.26710 14.00210 43012 ft 504 kts 293°
2026-05-06 08:35 6.29397 13.93701 43011 ft 504 kts 293°
2026-05-06 08:36 6.32083 13.87191 43010 ft 504 kts 293°
2026-05-06 08:36 6.34770 13.80676 43018 ft 505 kts 293°
2026-05-06 08:37 6.37459 13.74155 43023 ft 505 kts 293°
2026-05-06 08:37 6.40148 13.67633 43009 ft 505 kts 293°
2026-05-06 08:38 6.42835 13.61109 43018 ft 505 kts 293°
2026-05-06 08:38 6.45525 13.54578 43011 ft 506 kts 293°
2026-05-06 08:39 6.48213 13.48046 43052 ft 505 kts 293°
2026-05-06 08:39 6.49549 13.44800 43250 ft 501 kts 293°
2026-05-06 08:39 6.50876 13.41576 43440 ft 497 kts 293°
2026-05-06 08:39 6.52193 13.38374 43626 ft 494 kts 293°
2026-05-06 08:40 6.53503 13.35188 43809 ft 492 kts 293°
2026-05-06 08:40 6.54807 13.32017 43993 ft 490 kts 293°
2026-05-06 08:40 6.56122 13.28817 44172 ft 488 kts 293°
2026-05-06 08:40 6.57416 13.25670 44369 ft 486 kts 293°
2026-05-06 08:41 6.58703 13.22537 44570 ft 484 kts 292°
2026-05-06 08:41 6.59984 13.19419 44744 ft 482 kts 293°
2026-05-06 08:41 6.61262 13.16307 44893 ft 480 kts 293°
2026-05-06 08:41 6.62535 13.13208 45042 ft 479 kts 293°
2026-05-06 08:42 6.63804 13.10116 45201 ft 478 kts 293°
2026-05-06 08:42 6.65070 13.07034 45346 ft 476 kts 293°
2026-05-06 08:42 6.66333 13.03957 45505 ft 475 kts 293°
2026-05-06 08:42 6.67591 13.00891 45657 ft 474 kts 293°
2026-05-06 08:43 6.68845 12.97834 45815 ft 472 kts 293°
2026-05-06 08:43 6.70095 12.94786 45972 ft 471 kts 293°
2026-05-06 08:43 6.71342 12.91746 46126 ft 470 kts 293°
2026-05-06 08:43 6.72585 12.88713 46283 ft 468 kts 293°
2026-05-06 08:44 6.73827 12.85684 46439 ft 467 kts 293°
2026-05-06 08:44 6.75062 12.82670 46590 ft 466 kts 293°
2026-05-06 08:44 6.76293 12.79666 46734 ft 464 kts 293°
2026-05-06 08:44 6.77522 12.76666 46869 ft 463 kts 293°
2026-05-06 08:45 6.78748 12.73672 47004 ft 462 kts 293°
2026-05-06 08:45 6.81191 12.67708 47019 ft 466 kts 293°
2026-05-06 08:46 6.83668 12.61656 47032 ft 470 kts 293°
2026-05-06 08:46 6.86165 12.55552 47033 ft 474 kts 293°
2026-05-06 08:47 6.88698 12.49359 47022 ft 477 kts 293°
2026-05-06 08:47 6.91228 12.43169 47023 ft 479 kts 293°
2026-05-06 08:48 6.93768 12.36951 47031 ft 481 kts 293°
2026-05-06 08:48 6.96301 12.30751 47028 ft 485 kts 293°
2026-05-06 08:49 6.98865 12.24470 47035 ft 485 kts 293°
2026-05-06 08:49 7.01431 12.18182 47036 ft 485 kts 293°
2026-05-06 08:50 7.03995 12.11895 47040 ft 486 kts 293°
2026-05-06 08:50 7.06558 12.05608 47044 ft 486 kts 293°
2026-05-06 08:51 7.09124 11.99314 47053 ft 486 kts 293°
2026-05-06 08:51 7.11688 11.93019 47056 ft 486 kts 293°
2026-05-06 08:52 7.14206 11.86708 47044 ft 486 kts 292°
2026-05-06 08:52 7.15859 11.80123 47031 ft 487 kts 278°
2026-05-06 08:53 7.15878 11.73299 47035 ft 489 kts 267°
2026-05-06 08:53 7.15323 11.66466 47026 ft 490 kts 269°
2026-05-06 08:54 7.15354 11.59622 47030 ft 489 kts 271°
2026-05-06 08:54 7.15094 11.52777 47030 ft 488 kts 269°
2026-05-06 08:55 7.14974 11.45938 47004 ft 489 kts 270°
2026-05-06 08:55 7.14795 11.39091 47007 ft 489 kts 269°
2026-05-06 08:56 7.14629 11.32243 47016 ft 489 kts 270°
2026-05-06 08:56 7.14468 11.25396 47014 ft 490 kts 269°
2026-05-06 08:57 7.14292 11.18542 47030 ft 490 kts 270°
2026-05-06 08:57 7.14130 11.11688 47016 ft 490 kts 269°
2026-05-06 08:58 7.13955 11.04829 47012 ft 490 kts 270°
2026-05-06 08:58 7.13787 10.97969 47009 ft 490 kts 269°
2026-05-06 08:59 7.13612 10.91112 47000 ft 490 kts 270°
2026-05-06 08:59 7.13440 10.84250 46991 ft 490 kts 269°
2026-05-06 09:00 7.13265 10.77385 46980 ft 490 kts 269°
2026-05-06 09:00 7.13090 10.70520 46976 ft 490 kts 269°
2026-05-06 09:01 7.12913 10.63653 46974 ft 490 kts 269°
2026-05-06 09:01 7.12736 10.56788 46970 ft 491 kts 269°
2026-05-06 09:02 7.12557 10.49920 46974 ft 491 kts 269°
2026-05-06 09:02 7.12407 10.44164 46973 ft 491 kts 269°
2026-05-06 09:03 7.12228 10.37345 46973 ft 491 kts 269°
2026-05-06 09:03 7.12046 10.30478 46978 ft 491 kts 269°
2026-05-06 09:04 7.11863 10.23601 46968 ft 491 kts 269°
2026-05-06 09:04 7.11675 10.16725 46967 ft 491 kts 269°
2026-05-06 09:05 7.11482 10.09846 46969 ft 492 kts 269°
2026-05-06 09:05 7.11292 10.02968 46968 ft 491 kts 269°
2026-05-06 09:06 7.11097 9.96089 46964 ft 492 kts 269°
2026-05-06 09:06 7.10904 9.89208 46967 ft 492 kts 269°
2026-05-06 09:07 7.10708 9.82325 46962 ft 492 kts 269°
2026-05-06 09:07 7.10512 9.75439 46949 ft 492 kts 269°
2026-05-06 09:08 7.10314 9.68555 46947 ft 492 kts 269°
2026-05-06 09:08 7.10115 9.61677 46968 ft 492 kts 269°
2026-05-06 09:09 7.09917 9.54791 46962 ft 492 kts 269°
2026-05-06 09:09 7.09715 9.47909 46964 ft 492 kts 269°
2026-05-06 09:10 7.09515 9.41029 46961 ft 492 kts 269°
2026-05-06 09:10 7.09312 9.34144 46961 ft 492 kts 269°
2026-05-06 09:11 7.09110 9.27261 46968 ft 492 kts 269°
2026-05-06 09:11 7.09044 9.20380 46964 ft 491 kts 271°
2026-05-06 09:12 7.09963 9.13587 46950 ft 490 kts 284°
2026-05-06 09:12 7.11909 9.07026 46968 ft 489 kts 288°
2026-05-06 09:13 7.13571 9.00389 46967 ft 490 kts 283°
2026-05-06 09:13 7.15227 8.93741 46972 ft 489 kts 286°
2026-05-06 09:14 7.16947 8.87108 46967 ft 490 kts 284°
2026-05-06 09:14 7.18590 8.80452 46969 ft 490 kts 285°
2026-05-06 09:15 7.20300 8.73811 46966 ft 490 kts 284°
2026-05-06 09:15 7.21956 8.67156 46969 ft 490 kts 285°
2026-05-06 09:16 7.23651 8.60505 46962 ft 490 kts 285°
2026-05-06 09:16 7.25320 8.53845 46948 ft 490 kts 285°
2026-05-06 09:17 7.27003 8.47190 46949 ft 490 kts 285°
2026-05-06 09:17 7.28676 8.40533 46948 ft 490 kts 285°
2026-05-06 09:18 7.30351 8.33883 46958 ft 490 kts 285°
2026-05-06 09:18 7.32023 8.27233 46964 ft 490 kts 285°
2026-05-06 09:19 7.33695 8.20583 46957 ft 490 kts 285°
2026-05-06 09:19 7.35366 8.13928 46952 ft 490 kts 285°
2026-05-06 09:20 7.37036 8.07274 46951 ft 490 kts 285°
2026-05-06 09:20 7.38706 8.00618 46962 ft 490 kts 285°
2026-05-06 09:21 7.40374 7.93962 46959 ft 490 kts 285°
2026-05-06 09:21 7.42089 7.87316 46958 ft 490 kts 286°
2026-05-06 09:22 7.43916 7.80702 46962 ft 490 kts 287°
2026-05-06 09:22 7.45894 7.74139 46972 ft 490 kts 288°
2026-05-06 09:23 7.47833 7.67556 46962 ft 491 kts 287°
2026-05-06 09:23 7.49709 7.60944 46964 ft 491 kts 287°
2026-05-06 09:24 7.51565 7.54326 46963 ft 491 kts 287°
2026-05-06 09:24 7.53237 7.47652 46972 ft 491 kts 284°
2026-05-06 09:25 7.54946 7.40990 46961 ft 491 kts 286°
2026-05-06 09:25 7.56662 7.34321 46958 ft 492 kts 285°
2026-05-06 09:26 7.58355 7.27636 46961 ft 492 kts 286°
2026-05-06 09:26 7.60076 7.20956 46971 ft 493 kts 285°
2026-05-06 09:27 7.61773 7.14258 46962 ft 493 kts 285°
2026-05-06 09:27 7.63483 7.07561 46959 ft 494 kts 285°
2026-05-06 09:28 7.65182 7.00855 46962 ft 494 kts 285°
2026-05-06 09:28 7.66890 6.94143 46955 ft 494 kts 285°
2026-05-06 09:29 7.68590 6.87434 46959 ft 494 kts 285°
2026-05-06 09:29 7.70293 6.80725 46953 ft 494 kts 285°
2026-05-06 09:30 7.71991 6.74020 46953 ft 494 kts 285°
2026-05-06 09:30 7.73690 6.67315 46950 ft 494 kts 285°
2026-05-06 09:31 7.75387 6.60608 46956 ft 493 kts 285°
2026-05-06 09:31 7.77098 6.53911 46958 ft 493 kts 285°
2026-05-06 09:32 7.78826 6.47214 46959 ft 493 kts 285°
2026-05-06 09:32 7.80539 6.40513 46962 ft 493 kts 285°
2026-05-06 09:33 7.82261 6.33815 46971 ft 493 kts 285°
2026-05-06 09:33 7.83964 6.27110 46954 ft 494 kts 285°
2026-05-06 09:34 7.85672 6.20403 46960 ft 494 kts 285°
2026-05-06 09:34 7.87379 6.13691 46957 ft 494 kts 285°
2026-05-06 09:35 7.89083 6.06981 46966 ft 494 kts 285°
2026-05-06 09:35 7.90788 6.00271 46960 ft 494 kts 285°
2026-05-06 09:36 7.92491 5.93555 46966 ft 494 kts 285°
2026-05-06 09:36 7.94195 5.86839 46964 ft 494 kts 285°
2026-05-06 09:37 7.95895 5.80125 46968 ft 494 kts 285°
2026-05-06 09:37 7.97596 5.73410 46971 ft 494 kts 285°
2026-05-06 09:38 7.99295 5.66691 46959 ft 494 kts 285°
2026-05-06 09:38 8.00987 5.59967 46953 ft 495 kts 285°
2026-05-06 09:39 8.02682 5.53243 46956 ft 494 kts 285°
2026-05-06 09:39 8.04374 5.46520 46957 ft 494 kts 285°
2026-05-06 09:40 8.06065 5.39797 46951 ft 494 kts 285°
2026-05-06 09:40 8.08598 5.29714 46952 ft 494 kts 285°
2026-05-06 09:41 8.10285 5.22996 46963 ft 494 kts 285°
2026-05-06 09:41 8.11968 5.16284 46968 ft 493 kts 284°
2026-05-06 09:42 8.13647 5.09573 46950 ft 493 kts 284°
2026-05-06 09:42 8.15009 5.03986 46958 ft 493 kts 284°
2026-05-06 09:43 8.16661 4.97268 46949 ft 493 kts 284°
2026-05-06 09:43 8.18314 4.90549 46956 ft 493 kts 284°
2026-05-06 09:44 8.20015 4.83849 46956 ft 493 kts 284°
2026-05-06 09:44 8.21693 4.77139 46963 ft 493 kts 284°
2026-05-06 09:45 8.23379 4.70434 46957 ft 493 kts 284°
2026-05-06 09:45 8.25060 4.63729 46958 ft 493 kts 284°
2026-05-06 09:46 8.26751 4.56978 46952 ft 493 kts 284°
2026-05-06 09:46 8.28422 4.50309 46951 ft 493 kts 284°
2026-05-06 09:47 8.30100 4.43600 46949 ft 493 kts 284°
2026-05-06 09:47 8.31778 4.36891 46958 ft 493 kts 284°
2026-05-06 09:48 8.33444 4.30178 46943 ft 493 kts 284°
2026-05-06 09:48 8.35108 4.23459 46953 ft 493 kts 284°
2026-05-06 09:49 8.36772 4.16747 46954 ft 493 kts 284°
2026-05-06 09:49 8.38432 4.10034 46944 ft 493 kts 284°
2026-05-06 09:50 8.40094 4.03316 46949 ft 493 kts 284°
2026-05-06 09:50 8.41752 3.96602 46945 ft 493 kts 284°
2026-05-06 09:51 8.43411 3.89885 46937 ft 493 kts 284°
2026-05-06 09:51 8.45067 3.83171 46936 ft 493 kts 284°
2026-05-06 09:52 8.46723 3.76456 46938 ft 493 kts 284°
2026-05-06 09:52 8.48377 3.69738 46936 ft 493 kts 284°
2026-05-06 09:53 8.50030 3.63023 46941 ft 492 kts 284°
2026-05-06 09:53 8.51681 3.56311 46941 ft 492 kts 284°
2026-05-06 09:54 8.53328 3.49607 46945 ft 492 kts 284°
2026-05-06 09:54 8.54974 3.42908 46943 ft 491 kts 284°
2026-05-06 09:55 8.56645 3.36223 46942 ft 490 kts 285°
2026-05-06 09:55 8.58524 3.29604 46922 ft 490 kts 291°
2026-05-06 09:56 8.61854 3.23648 46923 ft 488 kts 308°
2026-05-06 09:56 8.66795 3.18979 46932 ft 488 kts 325°
2026-05-06 09:57 8.72701 3.15609 46953 ft 488 kts 332°
2026-05-06 09:57 8.78575 3.12181 46936 ft 487 kts 325°
2026-05-06 09:58 8.84095 3.08206 46935 ft 487 kts 326°
2026-05-06 09:58 8.89837 3.04566 46939 ft 487 kts 327°
2026-05-06 09:59 8.95456 3.00747 46942 ft 487 kts 326°
2026-05-06 09:59 9.01142 2.97028 46936 ft 486 kts 327°
2026-05-06 10:00 9.07017 2.93645 46911 ft 487 kts 336°
2026-05-06 10:00 9.13491 2.91682 46932 ft 487 kts 349°
2026-05-06 10:01 9.20208 2.90785 46939 ft 487 kts 352°
2026-05-06 10:01 9.26859 2.89516 46935 ft 486 kts 346°
2026-05-06 10:02 9.33324 2.87575 46915 ft 485 kts 338°
2026-05-06 10:02 9.39505 2.84863 46923 ft 484 kts 334°
2026-05-06 10:03 9.44909 2.80959 46869 ft 482 kts 306°
2026-05-06 10:03 9.46551 2.78016 46926 ft 480 kts 293°
2026-05-06 10:03 9.47584 2.74807 46930 ft 481 kts 282°
2026-05-06 10:04 9.47936 2.71442 46931 ft 481 kts 271°
2026-05-06 10:04 9.47812 2.68053 46943 ft 482 kts 266°
2026-05-06 10:04 9.47222 2.61285 46930 ft 482 kts 267°
2026-05-06 10:05 9.47328 2.54504 46930 ft 482 kts 274°
2026-05-06 10:05 9.47354 2.47713 46931 ft 482 kts 269°
2026-05-06 10:06 9.47304 2.40921 46917 ft 483 kts 272°
2026-05-06 10:06 9.47366 2.34121 46913 ft 483 kts 271°
2026-05-06 10:07 9.47226 2.27325 46915 ft 483 kts 269°
2026-05-06 10:07 9.47060 2.20525 46920 ft 483 kts 270°
2026-05-06 10:08 9.46889 2.13721 46920 ft 483 kts 269°
2026-05-06 10:08 9.46704 2.06915 46919 ft 484 kts 269°
2026-05-06 10:09 9.46535 2.00105 46921 ft 484 kts 269°
2026-05-06 10:09 9.46364 1.93291 46927 ft 484 kts 270°
2026-05-06 10:10 9.46304 1.86479 46924 ft 484 kts 270°
2026-05-06 10:10 9.46286 1.79662 46910 ft 484 kts 271°
2026-05-06 10:11 9.46298 1.72837 46912 ft 485 kts 271°
2026-05-06 10:11 9.46281 1.66013 46920 ft 485 kts 271°
2026-05-06 10:12 9.46284 1.59180 46920 ft 485 kts 271°
2026-05-06 10:12 9.46270 1.52345 46917 ft 485 kts 271°
2026-05-06 10:13 9.46265 1.45506 46925 ft 486 kts 271°
2026-05-06 10:13 9.46253 1.38665 46921 ft 486 kts 271°
2026-05-06 10:14 9.46243 1.31821 46917 ft 486 kts 271°
2026-05-06 10:14 9.46230 1.24976 46931 ft 486 kts 271°
2026-05-06 10:15 9.46216 1.18127 46929 ft 486 kts 271°
2026-05-06 10:15 9.46201 1.11275 46930 ft 487 kts 271°
2026-05-06 10:16 9.46187 1.04422 46926 ft 487 kts 271°
2026-05-06 10:16 9.46282 0.97571 46911 ft 486 kts 274°
2026-05-06 10:17 9.46700 0.90743 46907 ft 486 kts 275°
2026-05-06 10:17 9.47156 0.83914 46910 ft 486 kts 275°
2026-05-06 10:18 9.47573 0.77088 46911 ft 486 kts 275°
2026-05-06 10:18 9.48020 0.70260 46908 ft 486 kts 275°
2026-05-06 10:19 9.48443 0.63425 46901 ft 486 kts 275°
2026-05-06 10:19 9.48880 0.56589 46895 ft 487 kts 275°
2026-05-06 10:20 9.49307 0.49748 46897 ft 487 kts 275°
2026-05-06 10:20 9.49738 0.42904 46891 ft 487 kts 275°
2026-05-06 10:21 9.50164 0.36055 46895 ft 487 kts 275°
2026-05-06 10:21 9.50592 0.29203 46893 ft 488 kts 275°
2026-05-06 10:22 9.51000 0.22343 46901 ft 488 kts 275°
2026-05-06 10:22 9.51408 0.15482 46899 ft 488 kts 275°
2026-05-06 10:23 9.51753 0.09723 46900 ft 489 kts 275°
2026-05-06 10:23 9.52157 0.02844 46900 ft 490 kts 275°
2026-05-06 10:24 9.52567 -0.04042 46899 ft 490 kts 275°
2026-05-06 10:24 9.52987 -0.10938 46905 ft 490 kts 275°
2026-05-06 10:25 9.53401 -0.17837 46903 ft 491 kts 275°
2026-05-06 10:25 9.53815 -0.24737 46903 ft 491 kts 275°
2026-05-06 10:26 9.54227 -0.31644 46900 ft 491 kts 275°
2026-05-06 10:26 9.54638 -0.38560 46896 ft 492 kts 275°
2026-05-06 10:27 9.55049 -0.45478 46902 ft 492 kts 275°
2026-05-06 10:27 9.55458 -0.52398 46908 ft 492 kts 275°
2026-05-06 10:28 9.55865 -0.59312 46907 ft 492 kts 275°
2026-05-06 10:28 9.56271 -0.66222 46912 ft 491 kts 275°
2026-05-06 10:29 9.56675 -0.73130 46916 ft 491 kts 274°
2026-05-06 10:29 9.57118 -0.80020 46919 ft 490 kts 275°
2026-05-06 10:30 9.58257 -0.86788 46913 ft 487 kts 287°
2026-05-06 10:30 9.60891 -0.93078 46916 ft 485 kts 298°
2026-05-06 10:31 9.64039 -0.99114 46912 ft 485 kts 296°
2026-05-06 10:31 9.66690 -1.05396 46901 ft 485 kts 294°
2026-05-06 10:32 9.69599 -1.11557 46895 ft 485 kts 296°
2026-05-06 10:32 9.72374 -1.17782 46899 ft 485 kts 295°
2026-05-06 10:33 9.75208 -1.23980 46895 ft 485 kts 296°
2026-05-06 10:33 9.78022 -1.30192 46896 ft 485 kts 295°
2026-05-06 10:34 9.80835 -1.36403 46897 ft 485 kts 295°
2026-05-06 10:34 9.83657 -1.42616 46895 ft 485 kts 295°
2026-05-06 10:35 9.86469 -1.48838 46905 ft 485 kts 295°
2026-05-06 10:35 9.89288 -1.55055 46899 ft 485 kts 295°
2026-05-06 10:36 9.92100 -1.61279 46897 ft 486 kts 295°
2026-05-06 10:36 9.94917 -1.67503 46900 ft 486 kts 295°
2026-05-06 10:37 9.97730 -1.73732 46898 ft 486 kts 295°
2026-05-06 10:37 10.00526 -1.79922 46896 ft 486 kts 295°
2026-05-06 10:38 10.03339 -1.86156 46904 ft 486 kts 295°
2026-05-06 10:38 10.06149 -1.92385 46911 ft 486 kts 295°
2026-05-06 10:39 10.08959 -1.98616 46905 ft 486 kts 295°
2026-05-06 10:39 10.11769 -2.04854 46892 ft 486 kts 295°
2026-05-06 10:40 10.14579 -2.11094 46893 ft 486 kts 295°
2026-05-06 10:40 10.17387 -2.17334 46889 ft 486 kts 295°
2026-05-06 10:41 10.20162 -2.23586 46902 ft 486 kts 294°
2026-05-06 10:41 10.22600 -2.29977 46918 ft 485 kts 289°
2026-05-06 10:42 10.24745 -2.36475 46906 ft 485 kts 289°
2026-05-06 10:42 10.27015 -2.42928 46895 ft 486 kts 290°
2026-05-06 10:43 10.29211 -2.49417 46900 ft 486 kts 289°
2026-05-06 10:44 10.32556 -2.59126 46908 ft 486 kts 289°
2026-05-06 10:44 10.34768 -2.65610 46888 ft 486 kts 290°
2026-05-06 10:45 10.36992 -2.72092 46900 ft 486 kts 289°
2026-05-06 10:45 10.39211 -2.78573 46902 ft 486 kts 290°
2026-05-06 10:46 10.41605 -2.84984 46902 ft 485 kts 295°
2026-05-06 10:46 10.44635 -2.91095 46910 ft 484 kts 298°
2026-05-06 10:47 10.47650 -2.97267 46906 ft 484 kts 296°
2026-05-06 10:47 10.50609 -3.03361 46913 ft 484 kts 297°
2026-05-06 10:48 10.53615 -3.09478 46917 ft 484 kts 296°
2026-05-06 10:48 10.56588 -3.15612 46914 ft 484 kts 297°
2026-05-06 10:49 10.59583 -3.21728 46911 ft 483 kts 296°
2026-05-06 10:49 10.62578 -3.27896 46908 ft 483 kts 296°
2026-05-06 10:50 10.65561 -3.34011 46906 ft 483 kts 296°
2026-05-06 10:50 10.68512 -3.40086 46903 ft 482 kts 296°
2026-05-06 10:51 10.71485 -3.46193 46908 ft 482 kts 296°
2026-05-06 10:51 10.74450 -3.52298 46905 ft 481 kts 296°
2026-05-06 10:52 10.77414 -3.58399 46914 ft 481 kts 296°
2026-05-06 10:52 10.80374 -3.64498 46915 ft 481 kts 296°
2026-05-06 10:53 10.83333 -3.70598 46920 ft 481 kts 296°
2026-05-06 10:53 10.86288 -3.76694 46919 ft 480 kts 296°
2026-05-06 10:54 10.89239 -3.82786 46921 ft 480 kts 296°
2026-05-06 10:54 10.92208 -3.88916 46919 ft 480 kts 296°
2026-05-06 10:55 10.95134 -3.94963 46919 ft 479 kts 296°
2026-05-06 10:55 10.98094 -4.01084 46916 ft 479 kts 296°
2026-05-06 10:56 11.01032 -4.07163 46929 ft 478 kts 296°
2026-05-06 10:56 11.03967 -4.13239 46948 ft 478 kts 296°
2026-05-06 10:57 11.06875 -4.19263 46969 ft 477 kts 296°
2026-05-06 10:57 11.09800 -4.25318 46994 ft 476 kts 296°
2026-05-06 10:58 11.12620 -4.31408 46975 ft 476 kts 290°
2026-05-06 10:58 11.13869 -4.38052 47005 ft 476 kts 275°
2026-05-06 10:59 11.13554 -4.44785 46997 ft 478 kts 262°
2026-05-06 10:59 11.12250 -4.51386 46970 ft 479 kts 261°
2026-05-06 11:00 11.11399 -4.58089 46949 ft 477 kts 266°
2026-05-06 11:00 11.10498 -4.64831 46928 ft 478 kts 262°
2026-05-06 11:01 11.09560 -4.71518 46921 ft 477 kts 265°
2026-05-06 11:01 11.08688 -4.78168 46919 ft 477 kts 263°
2026-05-06 11:02 11.07751 -4.84852 46933 ft 477 kts 264°
2026-05-06 11:02 11.07009 -4.90454 46927 ft 477 kts 264°
2026-05-06 11:03 11.05931 -4.98227 46918 ft 477 kts 264°
2026-05-06 11:03 11.05173 -5.03831 46914 ft 477 kts 263°
2026-05-06 11:04 11.04251 -5.10523 46916 ft 477 kts 263°
2026-05-06 11:04 11.03335 -5.17213 46921 ft 477 kts 263°
2026-05-06 11:05 11.02414 -5.23902 46924 ft 477 kts 263°
2026-05-06 11:05 11.01494 -5.30585 46936 ft 477 kts 263°
2026-05-06 11:06 11.00572 -5.37269 46933 ft 477 kts 263°
2026-05-06 11:06 10.99649 -5.43952 46917 ft 477 kts 263°
2026-05-06 11:07 10.98726 -5.50632 46916 ft 477 kts 263°
2026-05-06 11:07 10.97807 -5.57264 46915 ft 476 kts 263°
2026-05-06 11:08 10.96883 -5.63934 46926 ft 476 kts 263°
2026-05-06 11:08 10.95955 -5.70611 46918 ft 476 kts 263°
2026-05-06 11:09 10.95027 -5.77284 46909 ft 476 kts 263°
2026-05-06 11:09 10.94096 -5.83959 46911 ft 476 kts 263°
2026-05-06 11:10 10.93164 -5.90635 46917 ft 476 kts 263°
2026-05-06 11:10 10.92232 -5.97304 46911 ft 476 kts 263°
2026-05-06 11:11 10.91298 -6.03974 46914 ft 476 kts 263°
2026-05-06 11:11 10.90362 -6.10646 46911 ft 476 kts 263°
2026-05-06 11:12 10.89425 -6.17313 46918 ft 476 kts 263°
2026-05-06 11:12 10.88486 -6.23985 46909 ft 476 kts 263°
2026-05-06 11:13 10.87546 -6.30655 46890 ft 476 kts 263°
2026-05-06 11:13 10.86605 -6.37322 46927 ft 476 kts 263°
2026-05-06 11:14 10.85663 -6.43988 46913 ft 476 kts 262°
2026-05-06 11:14 10.84718 -6.50657 46907 ft 476 kts 262°
2026-05-06 11:15 10.83773 -6.57321 46911 ft 476 kts 262°
2026-05-06 11:15 10.82826 -6.63983 46919 ft 475 kts 262°
2026-05-06 11:16 10.81879 -6.70640 46927 ft 475 kts 262°
2026-05-06 11:16 10.80932 -6.77287 46923 ft 475 kts 262°
2026-05-06 11:17 10.79983 -6.83936 46927 ft 475 kts 262°
2026-05-06 11:17 10.79033 -6.90580 46924 ft 475 kts 262°
2026-05-06 11:18 10.78080 -6.97227 46916 ft 475 kts 262°
2026-05-06 11:18 10.77127 -7.03870 46915 ft 475 kts 262°
2026-05-06 11:19 10.76172 -7.10511 46918 ft 474 kts 262°
2026-05-06 11:19 10.75217 -7.17152 46922 ft 474 kts 262°
2026-05-06 11:20 10.74260 -7.23786 46920 ft 474 kts 262°
2026-05-06 11:20 10.73302 -7.30419 46931 ft 474 kts 262°
2026-05-06 11:21 10.72343 -7.37047 46937 ft 474 kts 262°
2026-05-06 11:21 10.71384 -7.43672 46944 ft 473 kts 262°
2026-05-06 11:22 10.70423 -7.50296 46937 ft 473 kts 262°
2026-05-06 11:22 10.69461 -7.56920 46931 ft 473 kts 262°
2026-05-06 11:23 10.68497 -7.63548 46920 ft 475 kts 262°
2026-05-06 11:23 10.67527 -7.70196 46947 ft 476 kts 262°
2026-05-06 11:24 10.66556 -7.76857 46932 ft 477 kts 262°
2026-05-06 11:24 10.65580 -7.83532 46933 ft 478 kts 262°
2026-05-06 11:25 10.64601 -7.90217 46926 ft 478 kts 262°
2026-05-06 11:25 10.63623 -7.96907 46938 ft 478 kts 262°
2026-05-06 11:26 10.62488 -8.03566 46933 ft 478 kts 259°
2026-05-06 11:26 10.61192 -8.10196 46944 ft 478 kts 259°
2026-05-06 11:27 10.59937 -8.16763 46936 ft 479 kts 259°
2026-05-06 11:27 10.58644 -8.23403 46931 ft 479 kts 259°
2026-05-06 11:28 10.57363 -8.30049 46933 ft 479 kts 259°
2026-05-06 11:28 10.56074 -8.36682 46927 ft 479 kts 259°
2026-05-06 11:29 10.54788 -8.43318 46933 ft 478 kts 259°
2026-05-06 11:29 10.53499 -8.49948 46940 ft 478 kts 259°
2026-05-06 11:30 10.52211 -8.56573 46947 ft 478 kts 259°
2026-05-06 11:30 10.50921 -8.63196 46672 ft 483 kts 259°
2026-05-06 11:30 10.50265 -8.66564 45995 ft 482 kts 259°
2026-05-06 11:31 10.49617 -8.69882 45353 ft 479 kts 259°
2026-05-06 11:31 10.48942 -8.73218 44721 ft 483 kts 258°
2026-05-06 11:31 10.48244 -8.76538 44025 ft 478 kts 258°
2026-05-06 11:31 10.47560 -8.79843 43398 ft 480 kts 258°
2026-05-06 11:32 10.46889 -8.83172 42772 ft 482 kts 258°
2026-05-06 11:32 10.46212 -8.86511 42140 ft 484 kts 258°
2026-05-06 11:32 10.45520 -8.89862 41496 ft 487 kts 258°
2026-05-06 11:32 10.44822 -8.93240 40855 ft 490 kts 258°
2026-05-06 11:33 10.44126 -8.96639 40205 ft 493 kts 258°
2026-05-06 11:33 10.43429 -9.00056 39557 ft 495 kts 258°
2026-05-06 11:33 10.42733 -9.03447 38910 ft 498 kts 258°
2026-05-06 11:33 10.42020 -9.06901 38207 ft 502 kts 258°
2026-05-06 11:34 10.41304 -9.10383 37548 ft 506 kts 258°
2026-05-06 11:34 10.40584 -9.13892 36884 ft 510 kts 258°
2026-05-06 11:34 10.39854 -9.17440 36210 ft 515 kts 258°
2026-05-06 11:34 10.39118 -9.21009 35528 ft 519 kts 257°
2026-05-06 11:35 10.38374 -9.24617 34840 ft 524 kts 257°
2026-05-06 11:35 10.37624 -9.28252 34151 ft 528 kts 257°
2026-05-06 11:35 10.36853 -9.31916 33411 ft 532 kts 256°
2026-05-06 11:35 10.36035 -9.35586 32714 ft 533 kts 256°
2026-05-06 11:36 10.35212 -9.39258 32008 ft 534 kts 256°
2026-05-06 11:36 10.34416 -9.42945 31301 ft 536 kts 256°
2026-05-06 11:36 10.33626 -9.46648 30598 ft 537 kts 256°
2026-05-06 11:36 10.32815 -9.50355 29864 ft 538 kts 256°
2026-05-06 11:37 10.31993 -9.54060 29133 ft 535 kts 256°
2026-05-06 11:37 10.31189 -9.57732 28429 ft 530 kts 256°
2026-05-06 11:37 10.30404 -9.61364 27733 ft 524 kts 257°
2026-05-06 11:37 10.29619 -9.64965 27050 ft 519 kts 256°
2026-05-06 11:38 10.28834 -9.68524 26367 ft 514 kts 256°
2026-05-06 11:38 10.28059 -9.72050 25693 ft 509 kts 256°
2026-05-06 11:38 10.27296 -9.75545 25032 ft 505 kts 257°
2026-05-06 11:38 10.26539 -9.79010 24367 ft 500 kts 257°
2026-05-06 11:39 10.25775 -9.82484 23702 ft 496 kts 256°
2026-05-06 11:39 10.25026 -9.85887 23001 ft 491 kts 256°
2026-05-06 11:39 10.24289 -9.89260 22358 ft 488 kts 257°
2026-05-06 11:39 10.23719 -9.92643 21712 ft 485 kts 262°
2026-05-06 11:40 10.23450 -9.96043 21079 ft 482 kts 266°
2026-05-06 11:40 10.23423 -9.99434 20466 ft 479 kts 270°
2026-05-06 11:40 10.23395 -10.02794 19787 ft 475 kts 264°
2026-05-06 11:40 10.22729 -10.06015 19205 ft 471 kts 253°
2026-05-06 11:41 10.21738 -10.09168 18604 ft 467 kts 250°
2026-05-06 11:41 10.20711 -10.12282 17970 ft 465 kts 251°
2026-05-06 11:41 10.19815 -10.15431 17357 ft 464 kts 255°
2026-05-06 11:41 10.19272 -10.18654 16745 ft 463 kts 262°
2026-05-06 11:42 10.19003 -10.21914 16139 ft 463 kts 265°
2026-05-06 11:42 10.18796 -10.25168 15535 ft 461 kts 265°
2026-05-06 11:42 10.18414 -10.28399 14930 ft 460 kts 260°
2026-05-06 11:42 10.17878 -10.31592 14335 ft 459 kts 259°
2026-05-06 11:43 10.17417 -10.34797 13722 ft 458 kts 262°
2026-05-06 11:43 10.17081 -10.37997 13094 ft 455 kts 263°
2026-05-06 11:43 10.16730 -10.41110 12503 ft 427 kts 262°
2026-05-06 11:44 10.15943 -10.46670 11454 ft 373 kts 261°
2026-05-06 11:44 10.15631 -10.49209 10976 ft 353 kts 262°
2026-05-06 11:44 10.15339 -10.51624 10526 ft 337 kts 262°
2026-05-06 11:44 10.15036 -10.53942 10090 ft 325 kts 262°
2026-05-06 11:45 10.14740 -10.56174 9658 ft 314 kts 262°
2026-05-06 11:45 10.14459 -10.58352 9237 ft 308 kts 262°
2026-05-06 11:45 10.14185 -10.60495 8834 ft 304 kts 262°
2026-05-06 11:45 10.13913 -10.62610 8434 ft 300 kts 262°
2026-05-06 11:46 10.13641 -10.64697 8057 ft 297 kts 262°
2026-05-06 11:46 10.13460 -10.66096 7786 ft 295 kts 263°
2026-05-06 11:46 10.13198 -10.68145 7409 ft 290 kts 263°
2026-05-06 11:46 10.12936 -10.70171 7072 ft 288 kts 263°
2026-05-06 11:47 10.12678 -10.72154 6703 ft 279 kts 263°
2026-05-06 11:47 10.12428 -10.74078 6347 ft 267 kts 263°
2026-05-06 11:47 10.12193 -10.75890 5996 ft 251 kts 264°
2026-05-06 11:47 10.11972 -10.77596 5671 ft 238 kts 264°
2026-05-06 11:48 10.11763 -10.79214 5379 ft 224 kts 264°
2026-05-06 11:48 10.11574 -10.80667 5021 ft 195 kts 265°
2026-05-06 11:48 10.11398 -10.81983 4833 ft 184 kts 266°
2026-05-06 11:48 10.11229 -10.83193 4588 ft 166 kts 265°
2026-05-06 11:49 10.11069 -10.84341 4422 ft 165 kts 266°
2026-05-06 11:49 10.10803 -10.85452 4154 ft 161 kts 247°
2026-05-06 11:49 10.10085 -10.86327 3970 ft 167 kts 221°
2026-05-06 11:49 10.09032 -10.86799 3826 ft 166 kts 193°
2026-05-06 11:50 10.07887 -10.86814 3884 ft 168 kts 176°
2026-05-06 11:50 10.06705 -10.86717 3648 ft 165 kts 175°
2026-05-06 11:50 10.05546 -10.86619 3487 ft 165 kts 175°
2026-05-06 11:50 10.04433 -10.86451 3293 ft 158 kts 161°
2026-05-06 11:51 10.03530 -10.85871 3186 ft 153 kts 137°
2026-05-06 11:51 10.02946 -10.84957 2977 ft 153 kts 109°
2026-05-06 11:51 10.02823 -10.83934 2817 ft 146 kts 88°
2026-05-06 11:51 10.02901 -10.82894 2518 ft 146 kts 83°
2026-05-06 11:52 10.03019 -10.81875 2211 ft 143 kts 83°
2026-05-06 11:52 10.03139 -10.80882 2022 ft 142 kts 83°
2026-05-06 11:52 10.03255 -10.79895 1844 ft 142 kts 82°
2026-05-06 11:52 10.03369 -10.78906 1669 ft 140 kts 83°
2026-05-06 11:53 10.03486 -10.77937 1513 ft 135 kts 83°
2026-05-06 11:53 10.03592 -10.77086 1480 ft 99 kts 82°
2026-05-06 11:53 10.03652 -10.76572 1481 ft 53 kts 83°
2026-05-06 11:53 10.03686 -10.76307 1482 ft 32 kts 82°
2026-05-06 11:54 10.03714 -10.76088 1482 ft 22 kts 82°
2026-05-06 11:54 10.03792 -10.76032 1487 ft 8 kts 353°
2026-05-06 11:54 10.03799 -10.76033 1487 ft 0 kts 353°
2026-05-06 11:56 10.03807 -10.76034 1489 ft 3 kts 353°
2026-05-06 11:56 10.03824 -10.76035 1487 ft 4 kts
2026-05-06 11:56 10.03853 -10.76015 1489 ft 4 kts 23°
2026-05-06 11:56 10.03872 -10.76025 1489 ft 4 kts 301°
2026-05-06 11:57 10.03862 -10.76052 1483 ft 5 kts 226°
2026-05-06 11:57 10.03850 -10.76083 1488 ft 5 kts 261°
2026-05-06 11:57 10.03848 -10.76096 1488 ft 0 kts 262°